Location: Karlovy Vary
(50.2170°N, 12.9000°E)
Time: 00:00:41
(UTC+01:00)

ISS - Pass Details

Date: 07 October 2020
Orbit: 417 x 420 km, 51.6° (Epoch: 30 October)

Event Time Altitude Azimuth Distance (km) Brightness Sun altitude
Rises 19:34:42 0° 282° (WNW) 2,367 2.1 -10.7°
Reaches altitude 10° 19:37:25 10° 259° (W) 1,499 0.4 -11.1°
Maximum altitude 19:39:27 15° 221° (SW) 1,215 -0.9 -11.5°
Drops below altitude 10° 19:41:30 10° 184° (S) 1,494 -1.0 -11.8°
Sets 19:44:12 0° 160° (SSE) 2,353 -0.2 -12.2°
Enters shadow 19:44:13 - 160° (SSE) 2,360 -0.2 -12.2°
